Dewpoint
12 12 12 12 12 11 11 10 10 9 9 9 9 9 9 10 10 10 8 7 7 8 8 5 7 7 8 7 5 6 8 7 -3 -12 -15 -16 -17 -18 -16 -15 -16 -15 -14
12 12 12 12 12 11 11 10 10 9 9 9 10 8 9 10 10 9 8 7 7 8 8 5 7 7 7 7 7 7 7 6 -7 -15 -14 -15 -16 -16 -15 -15 -15 -14 -13
11 12 12 12 11 11 11 11 11 9 9 10 10 9 10 10 10 9 7 6 7 8 7 5 7 7 7 6 6 5 6 4 -9 -14 -14 -15 -16 -15 -15 -14 -14 -13 -11
10 11 12 12 10 11 11 10 10 9 11 10 9 9 10 10 9 8 6 6 7 8 7 7 7 7 6 6 4 -1 5 0 -10 -12 -14 -15 -15 -14 -14 -13 -13 -12 -8
9 9 11 12 11 12 11 11 10 10 11 10 10 9 10 10 9 7 6 6 7 8 7 7 7 7 6 6 5 0 -0 -0 -5 -11 -13 -14 -14 -14 -13 -12 -11 -8 -5
10 10 10 11 11 11 11 10 10 10 10 10 10 10 10 8 7 7 7 7 7 7 7 6 7 7 7 6 6 2 7 4 -6 -7 -9 -12 -12 -12 -12 -11 -9 -7 -4
9 10 10 11 12 11 11 10 10 10 10 10 11 10 10 9 6 6 8 7 7 6 7 6 6 6 7 6 6 6 3 8 7 -0 -7 -8 -10 -10 -10 -8 -6 -5 -3
10 10 10 11 11 10 9 8 8 10 10 10 10 10 9 9 8 6 8 9 7 5 7 7 7 6 6 6 4 5 1 7 7 7 -0 -2 -8 -8 -7 -6 -4 -3 -2
10 9 10 11 10 10 7 6 8 10 11 10 10 9 9 8 8 7 6 6 8 6 6 5 7 7 6 6 5 2 1 -1 6 6 2 -1 -5 -5 -5 -3 -3 -2 -1
6 9 10 11 10 9 7 6 9 10 10 9 10 9 8 6 7 8 8 6 8 8 7 6 5 6 7 7 6 7 4 -5 -5 0 3 3 -1 -2 -1 -0 0 0 0
6 10 11 10 9 9 7 6 9 10 9 10 9 8 7 7 7 7 8 7 6 7 8 7 7 5 5 6 7 7 6 5 -3 -2 1 4 6 2 2 3 3 4 4
8 11 10 10 9 9 9 6 9 9 9 10 9 8 8 7 6 4 6 5 5 6 6 7 7 7 7 6 5 5 6 5 4 -0 -2 -1 -1 2 3 4 5 5 5
7 11 10 10 9 9 8 7 8 8 8 9 9 8 8 7 6 6 6 7 7 7 7 6 6 5 6 7 6 6 5 5 3 -0 -2 -2 -2 -1 -0 1 3 4 5
2 7 10 10 11 9 10 9 8 9 9 9 9 8 8 7 7 7 6 7 8 8 7 7 7 7 6 6 7 7 6 3 0 -1 -0 1 2 3 3 4 4 5 5
8 7 10 10 10 9 9 9 9 9 9 9 10 9 8 8 8 8 7 7 7 7 7 5 5 7 7 6 3 3 3 1 1 1 3 3 3 3 3 5 5 5 5
9 8 8 9 9 10 9 9 9 9 9 9 9 9 9 9 7 7 8 8 7 6 6 5 5 4 6 5 4 3 3 3 3 3 3 3 3 3 3 3 3 4 4
9 7 9 9 9 9 9 9 9 9 9 9 9 9 9 8 8 9 9 8 8 8 7 6 5 5 5 5 6 6 5 4 4 3 3 3 3 3 3 3 3 4 4
7 6 9 10 9 10 9 9 9 8 9 9 9 9 9 9 9 9 8 9 9 9 8 8 7 6 5 5 4 4 5 5 5 5 4 3 4 4 4 4 4 4 4
8 9 9 9 9 9 9 9 9 9 9 8 9 9 9 9 8 8 8 8 8 8 8 8 8 7 6 4 4 5 5 5 5 4 4 5 4 4 6 5 5 5 5
9 9 8 8 8 8 8 8 9 9 9 9 8 8 9 8 8 8 8 7 7 8 8 8 7 7 6 5 6 7 6 6 6 5 5 5 5 6 7 8 7 7 7
8 8 8 8 8 9 8 8 8 8 8 8 7 8 8 8 7 7 7 7 7 7 6 6 7 7 7 7 6 5 6 6 6 7 6 6 7 8 8 8 8 7 7
8 8 8 8 8 8 8 8 8 8 8 8 8 8 7 7 7 7 7 7 7 7 7 8 7 7 6 6 6 6 7 7 7 7 7 7 7 7 7 7 6 7 7
8 8 8 8 9 8 8 8 8 9 8 8 8 8 8 8 8 8 7 7 7 7 7 7 8 7 8 7 7 7 7 7 7 7 7 6 6 6 5 5 5 5 5
8 8 8 8 8 8 8 8 7 8 8 8 8 8 8 8 8 8 8 8 8 8 7 7 7 7 7 7 7 7 7 7 7 6 6 6 5 5 4 4 3 3 2
8 8 8 8 8 8 7 8 8 7 7 7 7 7 8 8 7 8 8 7 7 7 7 7 7 7 7 7 7 7 6 6 5 5 4 3 3 2 1 0 -0 -1 -2
6 6 6 6 6 7 8 8 8 7 7 7 7 7 7 7 7 7 7 7 6 6 6 6 5 5 5 4 4 4 4 3 2 2 2 1 0 -1 -2 -2 -3 -4 -5
Wind_Speed
25 26 24 24 22 21 23 27 29 28 22 22 17 20 27 26 22 21 17 13 15 15 15 15 17 17 17 17 15 14 14 15 15 15 14 14 14 13 11 10 8 7 6
23 24 24 24 22 22 22 26 28 26 21 24 22 30 28 26 24 22 18 16 15 15 14 12 18 17 18 17 16 17 17 16 16 15 15 15 14 13 11 9 8 7 6
21 22 23 24 23 23 23 23 24 24 24 23 19 32 27 25 22 19 15 13 20 17 13 14 16 18 19 19 19 18 17 15 16 16 16 15 13 12 11 10 8 7 6
22 22 22 23 22 25 26 25 26 26 25 19 20 31 29 25 23 19 14 15 22 20 16 18 18 17 18 18 18 17 17 17 16 16 16 14 14 13 12 11 10 9 8
21 23 22 21 20 23 24 26 27 27 26 20 26 38 34 24 23 15 12 16 19 22 20 19 19 17 16 17 18 18 17 18 18 17 16 15 15 13 13 12 11 10 9
20 21 22 21 20 20 23 24 25 25 25 27 30 28 29 28 21 14 16 17 17 18 17 20 21 19 17 18 17 18 17 18 18 18 17 16 15 14 14 13 13 12 11
15 20 21 23 22 24 24 22 22 21 25 27 30 36 24 23 24 20 18 18 19 16 19 18 20 23 21 19 19 18 19 20 19 18 18 17 17 16 15 14 14 14 13
17 19 21 26 25 22 22 22 20 20 24 33 38 25 19 21 26 27 21 16 16 15 21 19 19 22 22 22 22 22 20 22 20 19 19 19 18 17 16 16 16 16 15
21 21 21 24 22 21 19 17 17 18 30 38 38 29 20 14 23 21 22 23 18 18 21 23 23 18 17 16 14 20 23 25 24 23 20 19 19 18 18 17 17 17 17
23 20 22 23 21 20 19 16 16 16 33 24 33 28 19 34 25 15 22 26 20 22 17 14 21 19 19 18 18 18 16 21 22 23 22 21 20 19 18 18 19 19 18
23 23 23 25 22 20 18 16 17 22 23 34 34 33 21 24 26 21 16 23 30 26 22 20 19 19 18 21 24 20 19 19 22 24 25 23 24 22 21 22 22 20 20
22 24 23 25 23 20 21 17 18 19 21 36 36 32 29 28 29 27 25 24 30 30 29 24 24 20 23 25 29 29 31 26 24 24 24 23 24 22 24 24 24 23 23
24 27 26 26 27 22 26 23 19 18 21 28 40 37 33 32 31 26 28 23 22 27 30 30 27 29 24 25 26 24 25 27 24 23 23 24 25 25 27 28 27 27 26
21 23 24 24 25 24 26 25 27 22 23 25 30 36 35 31 28 27 29 25 21 22 22 21 25 27 28 32 27 28 29 27 28 26 24 24 26 26 27 29 30 30 32
16 19 25 26 25 25 25 27 30 31 27 28 32 37 39 34 30 29 30 31 29 23 27 22 22 24 29 29 26 25 25 24 25 26 25 27 27 29 33 34 33 33 35
19 16 22 24 27 24 22 24 27 26 27 28 27 36 38 35 34 34 33 30 31 29 25 30 28 26 25 26 26 24 24 28 27 26 26 26 26 30 34 32 33 37 38
24 18 22 24 25 26 25 23 24 26 26 26 24 32 38 33 37 38 39 42 42 40 36 31 29 29 26 17 24 23 24 27 30 32 31 28 30 29 27 31 34 35 36
22 16 20 19 26 22 23 21 20 23 24 25 25 23 31 40 36 35 39 42 39 39 37 40 34 32 32 34 24 25 26 29 31 35 38 38 35 36 38 40 40 39 40
19 18 18 18 20 22 23 22 21 22 18 18 21 22 24 26 29 32 33 33 34 33 36 38 36 32 33 32 34 34 32 33 31 36 38 37 39 44 39 37 37 41 46
21 18 17 15 17 18 21 22 22 23 22 21 21 22 23 24 25 26 27 25 27 29 33 34 33 34 35 33 27 28 31 32 33 33 33 35 36 37 42 44 44 41 40
21 21 20 17 16 16 16 15 17 16 16 15 15 15 16 17 17 18 18 21 23 23 23 24 28 32 34 33 36 38 38 39 35 32 32 33 34 36 39 38 40 45 45
19 20 20 17 13 21 19 17 16 13 11 11 12 13 12 11 14 17 17 17 21 23 23 25 27 29 27 27 29 29 30 29 29 31 30 29 26 23 24 28 33 37 38
17 19 19 22 21 19 17 17 17 15 14 18 18 17 18 20 19 19 22 24 25 29 28 27 27 23 28 31 30 29 32 30 30 31 31 43 44 43 42 41 43 45 44
24 25 25 24 23 22 20 20 19 20 22 21 18 20 23 22 22 23 24 24 25 28 32 35 35 37 40 37 34 33 37 43 45 41 39 37 36 34 35 35 36 35 33
27 26 26 25 23 22 21 20 19 22 22 23 25 28 25 22 23 22 19 20 20 19 20 20 23 27 29 30 31 33 31 30 32 31 31 28 25 23 23 22 21 22 22
22 22 22 18 17 18 21 24 24 25 25 25 25 24 27 29 29 29 28 26 23 22 22 23 25 23 25 24 26 25 23 22 19 17 16 13 13 13 8 12 12 15 18
Wind_Direction
228 227 224 221 226 228 228 220 227 231 238 236 254 203 198 208 206 210 209 208 227 209 198 199 188 176 172 174 173 173 179 180 174 166 168 167 164 162 158 156 155 154 149
228 228 224 223 224 223 223 222 232 231 237 245 258 202 201 205 200 205 201 203 215 197 196 189 184 180 178 178 180 183 187 186 177 175 175 174 173 169 169 170 173 174 167
223 227 224 223 229 236 228 230 233 231 244 257 244 205 202 205 200 196 192 215 196 189 196 190 179 182 185 189 191 194 192 193 186 185 183 182 176 180 184 187 188 189 188
224 226 230 233 237 233 231 239 234 239 252 251 213 208 205 203 189 191 205 211 199 187 184 184 189 196 198 200 201 197 202 192 192 192 191 186 188 193 195 197 200 202 202
224 227 232 237 232 230 235 236 239 245 250 238 222 212 214 183 182 187 203 199 192 192 186 187 197 201 203 208 205 203 196 199 198 197 195 196 200 202 206 207 209 212 215
223 227 233 232 234 230 235 240 240 243 243 230 209 200 188 188 182 193 199 183 189 196 201 202 203 204 206 217 213 206 204 208 203 202 203 206 209 210 212 214 216 219 221
218 226 236 231 225 235 241 248 246 244 238 222 199 195 178 180 183 191 191 186 197 201 204 201 216 211 206 215 220 219 211 211 217 212 213 215 215 216 219 221 225 228 231
216 230 234 234 237 237 240 242 242 232 238 210 189 169 151 153 175 184 169 180 197 199 204 210 218 219 218 221 220 222 221 210 217 222 222 223 222 223 225 228 229 233 236
218 227 232 237 239 232 233 244 221 227 202 197 195 167 154 162 167 185 199 191 196 212 209 221 215 213 228 229 236 240 227 217 214 221 226 226 227 228 232 235 240 242 244
217 221 228 238 238 231 231 237 217 212 212 205 184 181 180 174 166 174 195 201 189 206 221 217 213 218 212 239 248 249 241 236 231 225 222 228 229 232 236 243 246 246 250
214 218 220 234 234 226 227 235 193 200 213 211 173 175 172 170 175 167 194 208 208 202 199 229 227 222 218 210 234 246 246 239 234 234 231 228 234 236 238 242 249 252 255
216 209 226 231 236 228 222 215 206 204 210 197 194 191 197 188 200 219 220 230 227 219 211 207 216 220 227 227 234 243 245 249 242 238 241 245 248 247 252 249 250 254 257
207 212 216 226 229 222 210 218 207 203 204 212 197 204 215 217 224 223 215 220 221 223 219 216 221 220 225 234 246 244 242 247 246 238 243 247 253 255 257 258 260 264 263
217 209 218 226 220 223 218 218 219 217 224 219 213 216 215 222 222 221 221 215 202 206 215 225 234 230 232 233 232 242 248 251 249 247 247 250 252 255 257 260 261 263 267
220 211 203 222 224 225 223 218 219 229 223 230 227 223 224 226 223 222 223 222 217 197 213 227 240 230 237 250 236 244 251 252 249 250 255 255 256 261 261 258 262 266 263
220 219 206 214 224 223 218 215 217 218 232 216 235 229 230 229 226 223 223 219 221 229 238 245 247 248 244 247 253 258 260 253 251 251 260 256 260 271 267 266 272 270 264
217 217 198 202 215 222 218 218 217 217 225 225 235 233 229 228 236 237 238 237 233 237 244 244 238 237 233 249 251 260 264 254 259 265 264 258 264 269 265 268 277 271 272
214 202 196 202 203 199 201 212 215 214 224 226 223 228 232 234 241 240 246 244 243 247 241 243 241 245 245 238 247 256 259 265 264 269 262 261 266 269 270 268 269 272 274
192 187 194 198 196 206 213 213 212 217 228 228 229 234 233 237 242 245 247 247 250 256 252 240 248 248 256 248 251 260 264 266 269 267 265 273 278 284 278 279 279 273 272
184 184 186 191 197 205 209 214 217 221 230 233 232 235 235 238 241 242 242 245 251 252 248 250 248 249 256 252 250 256 259 266 274 276 279 279 282 278 270 267 268 268 268
190 185 184 192 192 189 191 195 202 207 208 213 218 229 235 238 236 231 232 236 238 241 243 246 248 248 253 251 257 263 264 273 276 277 279 274 269 267 268 267 268 265 269
197 192 192 193 186 200 196 199 201 205 214 217 221 226 231 226 228 221 229 229 235 237 235 243 260 261 265 270 275 279 279 272 264 272 269 259 258 270 282 279 289 287 283
193 195 191 193 201 209 207 207 201 199 207 215 216 219 216 224 225 232 233 235 234 236 241 244 244 255 259 265 266 266 257 254 260 262 274 291 295 293 293 294 295 294 288
189 189 191 197 208 217 223 223 222 219 228 230 225 232 235 240 241 243 248 249 248 249 251 251 252 255 257 258 257 260 265 272 283 287 286 288 289 289 289 286 285 286 288
195 195 197 198 204 211 222 228 226 230 233 235 237 239 238 235 237 233 232 236 239 247 249 252 256 256 260 263 265 268 273 277 274 275 283 284 283 283 278 275 280 288 299
168 172 179 180 192 204 217 224 226 230 231 231 234 238 242 244 249 250 253 256 263 262 259 263 263 266 269 269 271 273 273 280 282 281 276 280 282 285 286 284 293 305 310
Height
1498 1501 1504 1506 1509 1511 1514 1516 1517 1521 1525 1526 1528 1529 1534 1538 1540 1543 1546 1548 1550 1552 1554 1556 1559 1561 1565 1567 1569 1572 1574 1575 1576 1579 1581 1583 1585 1587 1590 1592 1594 1595 1597
1495 1499 1501 1503 1505 1508 1510 1512 1515 1519 1521 1523 1524 1527 1531 1535 1537 1541 1543 1545 1548 1550 1553 1555 1558 1560 1564 1566 1569 1571 1573 1575 1576 1578 1580 1582 1584 1587 1589 1591 1593 1595 1596
1490 1494 1497 1500 1502 1504 1507 1510 1513 1516 1518 1520 1520 1524 1529 1533 1536 1538 1541 1543 1546 1549 1552 1554 1556 1559 1562 1564 1567 1569 1571 1573 1575 1577 1579 1581 1584 1586 1588 1590 1592 1594 1596
1487 1490 1493 1495 1498 1501 1504 1506 1509 1511 1513 1516 1518 1521 1525 1530 1533 1536 1538 1541 1543 1547 1550 1554 1556 1558 1561 1563 1565 1567 1570 1572 1574 1576 1577 1580 1582 1584 1587 1589 1591 1592 1594
1483 1486 1488 1492 1494 1496 1499 1501 1504 1507 1509 1512 1514 1519 1521 1527 1532 1533 1536 1539 1542 1545 1548 1552 1555 1557 1560 1562 1564 1565 1567 1570 1572 1575 1577 1579 1581 1583 1585 1587 1589 1591 1592
1479 1482 1484 1487 1490 1492 1494 1496 1498 1501 1503 1507 1511 1512 1517 1527 1530 1531 1536 1538 1541 1544 1547 1550 1553 1555 1558 1561 1562 1563 1566 1569 1571 1573 1575 1577 1579 1581 1583 1585 1587 1589 1590
1474 1477 1480 1483 1484 1487 1489 1491 1494 1496 1499 1503 1502 1511 1515 1522 1526 1531 1535 1537 1539 1543 1545 1548 1551 1553 1555 1558 1560 1562 1564 1568 1570 1571 1573 1575 1577 1579 1581 1583 1585 1586 1588
1470 1473 1475 1477 1480 1482 1485 1486 1488 1491 1493 1493 1496 1504 1514 1521 1524 1529 1534 1537 1538 1542 1544 1546 1548 1550 1553 1555 1557 1559 1562 1565 1568 1570 1571 1573 1575 1577 1578 1580 1582 1583 1585
1464 1469 1469 1472 1475 1477 1480 1482 1483 1487 1488 1490 1495 1500 1508 1513 1520 1527 1532 1535 1538 1538 1541 1543 1546 1547 1550 1553 1555 1557 1559 1561 1564 1566 1568 1570 1572 1574 1576 1578 1579 1580 1581
1459 1464 1465 1467 1470 1473 1476 1477 1479 1482 1486 1488 1494 1499 1502 1503 1514 1523 1528 1532 1535 1537 1539 1540 1543 1546 1548 1549 1552 1555 1557 1559 1561 1563 1565 1567 1569 1571 1573 1575 1576 1577 1577
1454 1458 1461 1463 1466 1469 1472 1474 1476 1480 1483 1486 1490 1494 1501 1505 1512 1516 1522 1527 1531 1533 1536 1536 1540 1542 1545 1549 1549 1550 1553 1556 1557 1560 1561 1562 1564 1566 1568 1570 1571 1572 1573
1448 1453 1456 1459 1462 1465 1468 1471 1473 1478 1482 1486 1488 1493 1497 1501 1508 1514 1521 1523 1526 1528 1532 1534 1538 1539 1542 1543 1546 1549 1548 1551 1554 1556 1558 1560 1561 1562 1563 1565 1566 1566 1567
1442 1446 1451 1455 1457 1461 1464 1468 1472 1475 1480 1484 1486 1491 1496 1501 1506 1511 1515 1517 1519 1522 1527 1530 1533 1535 1539 1540 1541 1543 1544 1546 1548 1551 1553 1555 1556 1557 1558 1559 1559 1560 1561
1438 1442 1446 1450 1454 1457 1460 1464 1468 1473 1478 1482 1486 1489 1493 1498 1503 1507 1510 1513 1516 1519 1521 1523 1527 1530 1533 1536 1537 1538 1540 1541 1543 1546 1548 1549 1550 1551 1552 1553 1554 1554 1555
1434 1437 1443 1446 1449 1453 1456 1459 1463 1468 1473 1478 1481 1486 1489 1493 1498 1502 1506 1508 1509 1512 1515 1517 1521 1525 1528 1529 1531 1533 1535 1536 1538 1540 1542 1543 1544 1544 1545 1546 1547 1547 1547
1430 1433 1438 1443 1446 1448 1451 1455 1460 1464 1468 1472 1475 1478 1482 1486 1491 1496 1500 1501 1504 1507 1509 1512 1516 1520 1523 1524 1526 1528 1529 1531 1533 1535 1536 1536 1537 1537 1538 1539 1539 1539 1539
1426 1430 1435 1439 1442 1445 1446 1451 1455 1459 1463 1467 1471 1473 1477 1481 1484 1488 1492 1494 1497 1501 1503 1506 1510 1514 1516 1518 1520 1521 1523 1524 1525 1527 1529 1530 1530 1531 1530 1531 1531 1531 1532
1425 1426 1431 1434 1438 1441 1443 1447 1450 1454 1459 1462 1466 1470 1473 1477 1480 1483 1486 1486 1489 1493 1496 1498 1502 1506 1509 1513 1514 1516 1517 1519 1520 1520 1521 1522 1523 1523 1523 1523 1522 1523 1523
1421 1425 1429 1432 1436 1439 1443 1445 1448 1451 1455 1458 1462 1465 1468 1471 1473 1475 1478 1480 1483 1487 1490 1491 1495 1499 1502 1505 1508 1509 1510 1512 1513 1513 1514 1514 1514 1513 1513 1513 1513 1513 1513
1420 1423 1428 1431 1434 1437 1440 1443 1445 1448 1452 1454 1457 1460 1463 1465 1468 1470 1473 1475 1479 1482 1484 1486 1488 1492 1495 1498 1501 1502 1502 1504 1504 1505 1505 1505 1505 1504 1501 1500 1500 1500 1500
1420 1422 1426 1429 1432 1435 1437 1440 1442 1445 1448 1451 1454 1456 1459 1461 1463 1466 1469 1471 1474 1478 1480 1482 1484 1486 1488 1491 1493 1495 1495 1496 1497 1499 1498 1498 1496 1491 1489 1488 1488 1488 1488
1419 1422 1424 1428 1430 1430 1434 1437 1440 1444 1447 1450 1452 1454 1456 1458 1460 1462 1465 1468 1471 1473 1475 1477 1478 1479 1482 1484 1486 1487 1487 1488 1488 1489 1489 1488 1486 1484 1480 1479 1479 1478 1478
1418 1421 1423 1424 1426 1428 1432 1435 1438 1441 1443 1445 1447 1449 1451 1451 1455 1458 1461 1464 1467 1467 1469 1471 1472 1473 1474 1475 1477 1478 1478 1478 1477 1479 1477 1476 1475 1473 1471 1468 1466 1467 1467
1414 1415 1417 1420 1422 1425 1429 1432 1435 1437 1438 1441 1442 1444 1446 1448 1450 1453 1454 1456 1457 1459 1460 1461 1463 1464 1465 1467 1468 1468 1469 1469 1469 1468 1468 1466 1465 1464 1463 1462 1459 1458 1459
1408 1411 1414 1416 1416 1418 1424 1428 1430 1431 1433 1435 1437 1438 1440 1441 1443 1446 1447 1448 1449 1451 1452 1453 1454 1455 1457 1458 1459 1460 1459 1460 1460 1458 1459 1459 1458 1458 1458 1457 1455 1453 1453
1404 1406 1407 1410 1412 1412 1420 1423 1424 1425 1426 1428 1430 1431 1433 1434 1436 1438 1439 1440 1441 1444 1445 1445 1447 1447 1448 1449 1451 1452 1450 1451 1454 1452 1451 1454 1452 1454 1454 1453 1452 1451 1450